Dewpoint
40 40 41 42 41 41 40 42 43 43 44 45 46 48 49 51 53 54 55 56 57 58 59 59 60 60 60 59 59 58 58 58 58 58 59 59 59 59 59 58 58 58 58 58 59 59 59 59 60 60 60 61 61 62 62 63 63 63 64 63 63 63 63 63 63 63 62 62 62 61 61 60 59 59 59 60 60 60 60 60 60 60 60 61 61 61
40 40 41 41 41 40 40 41 42 43 44 46 46 47 48 49 51 53 54 55 56 57 58 58 59 59 59 59 59 59 58 58 58 58 58 58 58 58 58 58 58 58 58 58 58 58 59 59 59 59 60 60 60 61 61 62 63 63 63 63 63 63 63 63 63 63 62 62 62 61 60 59 59 59 59 60 60 61 61 60 60 60 61 61 61 61
41 40 40 40 40 40 39 40 41 43 44 46 46 46 47 48 50 51 52 54 55 57 57 58 58 58 58 59 59 58 58 58 58 57 57 57 57 57 58 58 58 58 58 58 58 58 58 59 59 59 59 59 59 60 60 61 61 62 62 62 62 62 62 62 62 62 62 62 61 61 60 59 59 59 59 60 60 61 61 61 61 61 61 61 62 62
42 40 39 40 40 40 40 40 41 43 44 45 45 45 46 48 48 49 50 52 54 55 56 57 57 57 58 58 58 58 57 58 58 57 57 57 57 57 57 57 58 58 58 58 58 58 58 58 58 58 59 59 59 59 59 60 60 61 61 61 61 61 61 61 61 61 61 61 60 60 59 59 59 59 59 60 60 61 61 61 61 61 61 62 62 62
42 40 39 39 39 39 40 40 42 43 44 43 44 45 47 48 48 48 48 50 51 53 54 55 56 56 57 57 57 57 57 57 57 57 57 57 57 57 57 57 57 57 57 58 58 58 58 58 58 58 58 58 58 58 58 59 59 59 60 60 60 60 60 60 60 60 60 60 60 59 59 59 59 59 59 60 60 61 61 61 61 61 62 62 62 62
41 41 40 39 39 39 39 40 41 43 43 43 43 45 47 48 48 47 47 48 49 50 51 52 54 55 56 56 57 57 57 57 57 57 57 57 57 57 57 57 57 57 57 57 57 57 58 58 58 58 58 58 58 58 58 58 58 58 59 59 59 59 59 59 59 59 59 59 59 59 59 59 59 59 59 59 60 60 61 61 61 61 62 62 62 62
41 40 40 40 40 40 40 39 40 41 40 41 42 43 45 46 47 47 48 48 48 49 49 50 52 53 54 55 55 56 57 57 57 57 57 57 57 57 57 57 57 57 57 57 57 57 57 58 58 58 58 58 58 58 58 58 58 58 58 58 58 58 58 59 59 59 59 59 59 59 59 59 58 58 58 58 59 59 60 61 61 61 62 62 62 62
40 40 40 41 40 40 39 39 40 42 42 42 42 42 43 43 44 45 47 48 48 48 48 48 49 51 53 54 55 56 57 57 58 58 58 58 57 57 57 57 57 57 57 57 57 57 57 57 57 57 57 58 58 58 58 57 57 57 57 58 58 58 58 58 58 59 59 59 59 59 58 58 58 58 58 58 58 59 59 60 61 61 61 62 62 62
40 40 40 42 41 40 39 39 40 42 43 43 42 42 43 42 42 43 43 44 45 47 47 47 48 49 51 53 55 56 56 57 57 58 58 59 59 59 58 58 57 57 56 57 57 57 57 57 57 57 57 57 57 57 57 57 57 57 57 57 57 57 58 58 58 58 58 59 59 59 58 58 58 58 57 57 57 58 58 59 60 61 61 61 62 62
41 40 39 40 40 39 39 39 39 41 44 43 42 42 42 41 41 40 40 40 41 43 43 45 46 48 49 52 54 55 55 55 56 56 57 57 58 58 59 58 58 58 56 56 56 57 57 57 57 57 57 57 57 57 57 57 57 57 57 57 57 57 57 57 58 58 58 58 59 59 58 58 58 58 57 57 57 57 57 58 59 59 60 61 61 61
39 39 39 38 38 38 39 39 39 41 43 42 41 40 39 40 40 40 39 38 39 39 41 43 44 46 48 50 52 54 54 54 54 54 55 55 56 56 57 57 57 57 56 56 56 56 56 56 57 57 57 57 57 57 57 57 56 56 56 57 57 57 57 57 57 58 58 58 58 58 59 58 58 58 57 57 57 57 57 57 57 58 59 60 60 61
36 36 37 36 36 36 37 38 39 40 41 39 38 38 38 39 41 41 39 38 38 38 39 41 43 45 47 50 52 53 53 52 52 53 53 54 55 56 56 57 57 57 57 56 56 55 55 55 56 56 57 57 57 57 56 56 56 56 56 56 57 56 56 57 57 57 57 58 58 58 58 58 58 58 57 57 57 57 57 57 57 57 57 58 59 60
36 36 36 36 35 35 35 36 37 37 37 37 37 37 38 39 40 41 40 39 38 38 38 39 41 43 46 50 52 52 51 51 51 51 52 52 53 54 55 56 57 59 60 59 59 58 56 55 55 55 56 56 56 56 56 56 56 56 56 56 56 56 56 56 57 57 57 57 57 58 58 58 58 58 57 57 57 57 57 56 56 56 57 57 58 59
35 35 35 35 34 34 35 35 35 35 36 36 37 38 38 39 39 39 39 37 37 37 38 38 39 41 43 50 52 51 50 49 49 49 50 51 52 53 54 55 56 57 59 60 61 60 58 57 56 56 55 56 56 56 55 55 55 55 56 56 56 56 56 56 56 56 57 57 57 57 57 57 57 57 57 57 57 57 57 56 56 56 56 56 57 57
35 35 35 34 34 34 35 35 35 35 36 37 38 38 39 39 39 39 38 37 37 37 37 37 38 38 40 48 51 51 49 48 48 47 48 49 50 52 53 53 54 56 57 59 60 60 59 59 59 58 57 57 57 57 56 56 56 55 55 56 56 56 56 56 56 56 56 56 57 57 57 57 57 57 57 57 57 57 57 56 56 56 56 56 56 57
34 35 34 34 34 34 35 35 35 36 36 37 38 38 38 38 38 38 37 37 37 37 37 36 36 35 36 44 49 50 48 47 46 46 46 47 49 51 52 53 53 54 56 57 59 60 61 61 61 60 60 57 56 55 54 56 56 55 55 55 56 56 56 56 56 56 56 56 56 56 56 57 57 57 57 57 57 57 56 56 56 56 56 56 56 56
34 34 34 34 34 34 35 35 36 36 37 37 37 38 38 38 38 38 37 37 37 37 36 36 35 34 34 38 43 47 48 46 45 45 45 46 48 50 52 52 52 53 55 56 57 59 60 61 61 61 61 57 55 54 54 55 55 55 55 55 55 55 55 55 56 56 56 56 56 56 56 56 56 56 56 56 56 56 56 56 56 56 56 56 56 56
33 33 34 34 34 34 35 35 36 37 38 37 37 37 37 38 38 38 37 37 37 37 37 36 36 35 34 34 37 41 46 44 43 43 43 44 46 49 52 52 52 53 54 55 57 58 59 60 61 61 60 56 54 54 54 54 55 55 54 54 55 55 55 55 55 55 55 56 56 56 56 56 56 56 56 56 56 56 56 56 56 56 56 56 56 56
32 32 33 33 34 34 35 35 36 36 36 36 36 37 37 37 37 37 37 37 37 37 37 37 36 36 35 35 37 39 43 43 42 42 42 43 45 48 51 52 52 52 53 55 56 57 58 59 59 57 55 54 53 53 53 54 54 54 54 54 54 54 55 55 55 55 55 56 56 56 55 55 55 55 55 55 55 55 55 55 55 55 56 56 56 56
32 32 32 33 34 34 35 35 36 36 37 37 37 37 36 36 36 36 36 36 37 37 38 37 37 36 36 36 37 39 41 42 42 41 42 42 44 47 50 51 52 52 53 54 56 57 58 59 58 57 53 53 53 53 53 53 53 54 54 54 54 54 54 54 55 55 55 55 55 55 55 55 55 55 55 55 55 55 55 55 55 55 55 56 56 56
33 33 33 34 34 34 34 35 36 37 38 39 38 37 37 36 36 36 36 36 37 37 37 37 37 37 38 38 39 40 43 42 42 41 41 42 43 45 49 51 52 52 52 53 55 57 57 57 58 57 57 55 54 53 53 53 53 53 53 53 53 53 53 54 54 54 55 55 55 55 55 55 54 54 54 54 55 55 55 55 55 55 55 55 55 55
34 34 34 35 35 35 35 36 37 38 39 39 38 37 36 36 36 36 36 36 37 37 38 38 38 38 39 39 39 41 43 43 43 42 42 42 42 44 48 51 52 51 51 52 54 56 57 57 57 57 56 55 54 54 53 53 53 53 53 53 53 53 53 53 53 54 54 54 54 54 54 54 54 54 54 54 54 54 55 55 55 55 55 55 55 55
34 34 34 35 35 36 36 37 37 38 38 38 38 37 37 37 38 38 38 38 38 39 39 39 39 39 39 39 40 41 42 43 43 43 44 43 42 43 48 50 50 49 48 50 52 54 55 56 56 56 55 54 54 54 53 53 52 52 52 52 52 52 53 53 53 53 53 54 54 54 54 54 54 54 54 54 54 54 54 55 55 55 55 55 55 55
36 36 36 36 37 37 37 37 37 37 37 38 38 39 39 40 40 40 40 40 41 41 40 39 39 39 39 39 39 40 41 42 43 44 44 43 42 43 46 48 48 47 47 48 51 52 54 54 55 55 56 54 53 53 53 53 53 52 52 52 52 52 52 52 52 52 53 53 53 54 54 54 54 54 54 54 54 54 54 54 54 54 55 55 54 54
36 36 36 36 38 39 38 37 37 38 38 39 39 41 41 41 41 42 41 41 41 40 39 38 38 37 37 38 39 39 40 42 44 45 44 43 42 42 44 46 46 46 46 48 49 51 51 52 52 54 55 54 53 53 53 53 52 52 52 52 52 52 52 52 52 52 52 52 53 53 53 53 54 54 54 54 53 53 53 54 54 54 54 54 54 54
37 37 37 37 38 39 39 39 39 39 39 39 40 41 41 41 41 41 40 39 39 38 38 37 37 36 36 37 38 38 39 42 44 45 44 43 41 41 42 44 45 46 46 48 49 50 50 50 51 52 54 54 54 53 52 52 52 52 51 51 51 51 51 51 52 52 52 52 52 52 53 53 53 53 53 53 53 53 53 53 53 53 53 53 53 53
39 39 39 39 39 39 39 39 39 39 40 40 40 40 40 40 40 39 38 37 37 36 36 36 36 36 36 36 37 37 38 40 43 44 44 43 41 40 41 43 45 46 46 47 48 49 50 49 50 51 52 53 54 54 52 52 51 51 51 51 51 51 51 51 51 51 52 52 52 52 52 52 53 53 53 53 53 53 53 53 53 53 53 53 54 54
39 39 39 39 39 39 39 39 39 39 39 40 40 40 40 39 39 37 36 35 35 36 35 35 35 35 35 35 36 37 38 39 40 41 43 43 41 40 41 43 46 47 47 48 48 49 49 49 50 51 51 52 53 53 52 51 50 50 50 50 50 50 50 50 50 51 51 51 51 52 52 52 52 53 53 53 53 53 53 53 53 53 53 54 55 57
40 40 39 39 39 39 39 39 39 39 39 39 39 39 39 39 38 36 35 35 36 36 35 36 35 35 35 35 36 36 37 38 39 41 43 43 42 42 43 45 46 47 47 47 47 47 48 49 50 51 51 50 50 50 50 50 50 51 51 50 50 50 50 50 50 50 50 50 51 51 51 52 52 52 52 52 53 53 53 53 53 53 54 55 56 57
38 38 39 39 39 39 39 39 39 39 39 39 39 39 39 38 37 36 36 36 36 36 36 36 36 36 36 36 36 35 36 37 40 43 44 43 43 43 44 46 46 46 46 45 44 43 43 47 49 50 49 48 48 49 50 50 51 52 52 51 51 51 50 50 49 50 50 50 50 51 51 51 52 52 52 52 52 52 53 52 53 54 56 56 57 57
35 36 36 37 37 38 39 39 39 39 39 39 39 39 39 38 37 37 36 37 37 37 37 36 36 37 38 37 35 34 34 37 41 45 46 44 43 43 44 44 44 45 45 45 43 41 40 43 47 49 49 48 48 48 49 49 50 51 52 52 52 52 51 49 49 50 50 50 50 50 50 51 51 51 51 52 52 52 52 52 53 55 56 57 57 57
34 34 35 35 36 36 37 37 38 38 38 38 38 38 38 38 38 37 37 37 37 38 38 37 37 38 38 38 37 35 34 36 40 44 45 44 43 42 42 43 43 43 44 45 44 43 41 41 43 47 48 48 48 48 48 48 49 49 50 50 51 52 50 50 50 51 51 51 50 50 50 50 50 50 51 51 51 52 52 52 52 54 56 57 57 57
34 34 34 35 35 35 36 36 36 37 37 37 37 38 38 38 38 37 37 37 37 38 38 38 38 38 38 38 38 37 37 37 39 42 44 43 42 40 41 41 42 42 43 44 45 44 44 43 43 44 46 46 47 47 48 48 48 48 49 49 49 50 50 52 52 52 52 52 52 52 51 50 50 50 50 50 51 51 51 51 52 53 55 56 56 56
34 34 34 34 34 35 35 35 36 36 36 36 37 37 37 38 38 38 38 37 37 38 38 38 38 38 37 37 37 37 37 38 39 42 44 43 42 41 40 41 41 42 42 43 44 44 45 44 44 44 44 44 46 46 47 48 48 48 48 48 48 48 50 51 52 52 53 53 53 53 53 52 52 51 50 50 50 51 51 51 51 52 53 54 56 56
32 32 33 33 33 34 34 34 35 35 35 36 36 37 37 38 38 38 38 38 38 38 38 39 39 39 38 37 36 36 36 37 39 42 44 44 43 42 41 41 42 42 42 43 43 43 43 44 44 44 43 43 44 45 47 47 48 48 48 48 48 48 49 50 51 51 52 52 53 53 54 54 54 53 52 51 51 51 51 51 51 51 52 53 54 55
31 31 31 31 32 32 33 34 34 34 34 35 35 36 37 37 38 38 38 38 38 38 38 39 39 39 39 39 38 37 36 37 39 41 43 43 43 42 41 41 42 42 41 42 43 43 43 43 43 43 43 43 43 43 45 47 47 47 47 48 48 48 49 50 50 50 51 51 52 52 53 54 54 54 53 52 51 50 51 51 50 51 51 52 52 53
30 30 30 31 31 32 32 33 33 33 33 34 34 35 37 37 38 38 38 39 39 39 38 39 39 39 39 39 39 39 39 39 39 40 42 43 43 42 41 41 41 41 41 41 42 42 42 42 42 42 42 42 42 42 43 45 47 47 47 47 48 48 48 49 49 50 50 50 50 51 52 52 53 53 53 51 51 51 51 50 50 50 50 50 51 52
30 30 30 30 31 31 31 31 32 32 32 33 34 35 36 37 38 38 38 38 38 38 38 38 38 38 39 39 39 40 40 40 40 41 41 42 42 41 40 40 40 40 41 41 42 42 41 41 40 40 40 41 41 42 43 44 45 45 45 46 47 48 48 48 49 49 49 49 49 49 50 51 52 52 53 52 53 53 53 52 52 51 50 50 50 50
31 31 31 31 31 30 30 30 31 31 32 33 34 34 35 36 38 39 39 38 38 38 39 38 38 38 39 39 39 39 39 39 40 40 40 40 40 40 40 39 39 39 40 41 42 42 41 41 40 40 40 40 41 42 43 44 44 44 45 45 46 47 47 48 48 48 48 48 48 48 48 49 50 51 52 52 52 53 53 53 53 53 52 52 52 51
33 32 31 31 30 30 30 31 31 32 32 34 34 35 35 36 37 37 37 38 39 39 39 39 39 39 39 39 39 39 39 39 39 39 40 40 40 40 40 39 39 39 39 40 41 41 41 41 40 40 41 40 41 41 42 43 44 44 44 44 44 44 46 47 48 48 47 47 47 46 46 47 48 49 50 51 51 52 52 53 53 53 53 53 53 52
30 30 29 29 29 29 30 30 31 32 33 33 34 34 34 35 35 36 36 37 37 38 38 38 39 39 39 39 38 38 38 39 39 39 39 39 40 40 40 39 39 39 39 39 40 40 41 41 41 41 41 41 41 42 42 43 43 44 44 43 43 43 44 46 46 47 47 47 46 46 46 46 47 48 48 49 50 51 52 52 53 54 54 54 54 53
27 27 26 26 26 26 27 29 31 32 33 33 33 34 34 34 34 35 35 36 36 37 38 38 38 37 37 37 37 37 38 38 39 39 38 38 38 39 39 39 39 39 39 39 39 39 40 41 41 41 41 41 41 41 41 42 43 43 43 43 43 44 44 45 46 46 46 46 46 46 46 46 47 47 48 48 49 50 51 52 52 52 53 54 54 54
25 25 25 26 26 27 28 30 31 31 32 32 33 33 33 34 34 35 35 36 36 37 37 37 37 37 36 36 35 36 36 38 38 39 39 38 37 38 39 39 39 39 39 39 39 39 39 40 40 41 41 41 41 41 41 41 42 43 43 44 43 43 43 43 44 46 46 46 46 46 46 46 46 47 47 48 48 49 50 50 50 50 51 52 54 54
27 27 28 28 29 29 30 31 31 31 32 32 33 33 33 34 35 36 37 37 37 37 37 37 37 37 36 35 35 34 35 36 37 38 39 39 39 39 39 39 39 39 39 39 38 39 39 39 40 41 41 42 42 41 41 41 41 42 43 43 43 43 43 43 43 44 45 45 45 45 46 46 46 46 47 47 47 48 48 48 48 49 49 51 52 53
29 29 30 30 31 31 32 32 32 32 32 32 33 34 34 35 36 36 37 37 37 37 37 38 37 36 34 34 34 34 34 34 35 36 38 39 39 39 39 39 39 39 39 39 39 39 39 39 39 40 41 42 42 41 41 41 41 41 42 43 43 43 43 43 43 43 44 44 44 45 45 46 46 46 45 45 46 46 47 47 47 48 48 49 50 51
31 31 31 32 32 31 31 31 32 32 32 32 33 34 35 35 35 36 36 37 37 37 37 37 36 35 33 33 33 34 33 34 34 34 35 38 39 39 39 39 39 39 39 39 39 39 39 39 39 40 41 41 41 41 41 41 41 41 41 42 43 43 43 43 43 43 43 43 44 44 45 45 45 45 44 44 45 45 46 46 46 46 47 48 48 48
31 32 32 32 32 32 32 33 33 33 32 32 33 33 34 34 34 35 36 37 37 37 37 37 36 35 34 34 33 33 33 33 33 34 34 35 37 39 39 39 39 39 39 39 39 39 39 39 40 40 40 40 40 40 41 41 41 41 41 42 42 42 43 43 43 43 44 43 44 44 44 45 44 44 43 43 44 45 46 46 45 45 45 46 46 47
31 32 32 32 33 33 33 33 33 33 33 32 32 32 33 33 34 34 35 36 37 37 37 36 36 35 34 34 34 34 33 33 33 33 34 34 35 37 39 39 39 39 39 39 39 39 39 39 40 40 40 39 39 39 39 40 41 41 42 42 42 42 42 42 43 43 43 44 44 44 44 44 43 43 43 43 43 44 45 45 45 44 44 44 45 46
33 32 32 32 32 32 32 32 33 33 33 33 33 33 33 34 34 34 35 36 37 37 36 36 35 34 34 34 34 34 34 34 34 34 34 34 35 36 37 39 39 39 39 39 39 39 39 39 40 40 40 39 39 39 39 40 40 41 42 42 42 42 42 42 42 43 43 44 44 45 44 44 43 43 43 43 43 43 44 45 45 44 44 44 44 44
32 32 32 32 32 31 32 32 33 33 33 33 33 33 33 34 34 34 35 36 36 36 36 36 35 34 34 34 33 34 34 34 34 34 34 34 35 36 37 38 38 38 38 38 38 38 38 38 39 40 40 40 40 39 39 39 40 41 42 42 42 42 42 42 42 43 43 43 44 44 44 44 44 44 43 43 43 43 43 44 44 44 44 43 43 43
30 30 31 31 31 31 32 33 33 33 33 33 34 34 34 34 34 34 34 35 35 35 35 36 36 35 34 34 34 34 34 34 34 34 34 34 35 35 36 37 37 37 37 36 36 36 36 36 37 38 39 40 40 40 39 39 39 40 40 41 41 42 41 41 42 42 43 43 43 43 43 43 43 43 43 43 42 42 42 43 43 44 44 43 43 43